AQI (45)

Current Conditions for Foresthill, CA. Sunny, Dry   
Visibility: 10 miles
Space WX Alerts: WARNING:  Geomagnetic K-index of 4 expected ( Latest Alert ) - Issue Time: 2021 Jul 28 1922 UTC

  Summary / Temperature 

Current Temperature
94.3°F
34.6°C
(24/hr Ago)
88.9°F
(Apparent temp)
90.6°F
Uncomfortably Hot
Heat Index
90.1°F 

94.3°F/ 34.6°C
Evident discomfort

 Temp Rate:

 24/hr Difference:

 Avg Running Temp:

 Todays High:

 Todays Low:

 Y-days High:

 Y-days Low:

 Todays HeatIdx:

 Y-days HeatIdx:

 Evapotranspiration:

0°F/hr 

+5.4°F

90.2°F

94.3°F 12:15pm

72.7°F 4:32am

91.5°F 6:18pm

74.4°F 11:57pm

90.1°F 12:16pm

89.0°F 6:18pm

0.107 in

115' Above Ground

 Temperature:

 6'AGL VRS 115'AGL:

 Avg Running Temp:

 Humidity:

 Todays High:

 Todays Low:

 Y-days High:

 Y-days Low:

84.0°F 

-10.3°F

84.0°F

0% 

84.0°F 12:00am

84.0°F 12:00am

91.0°F 4:41pm

84.0°F 7:54pm

Temp & Humidity Graphs

  Wind 

Wind Speed

 3.0 mph

Gusting to

 12.0 mph

Wind from SW

221°  SW

Light air

 Avg speed:

 Wind Run:

 Peak Gust:

  3.0 mph 

47.0 miles

  18.0 mph 2:47am

  Almanac  

Moon age: 23 days,6 hours,23 minutes,38%

Waning Crescent
37%
Illuminated
23 days in cycle

 Moonrise:

 Moonset:

 Sunrise:

 Sunset:

 Solar Noon:

12:34am

2:49pm

6:05am

8:15pm

1:10pm

1min 52s less daylight tomorrow 

  Solar Radiation 

(Current Solar)
  865 W/m2 (100%)
(Todays High)
 865 W/m2@12:18pm
Feels like: 107.6°F in the sun

Rain

 Rain Today:

 Rain Rate (/hr):

 Rain last hour:

 Rain Yesterday:

 This Month:

 Season Total:

96 Days Since Last Rain Day

0.00 in

0.000 in

0.00 in

0.00 in

0.00 in

0.00 in

Updated Time

Updated: 8/1/21  12:18pm

(Updated  sec ago)

Humidity & Barometer

 Humidity:

 Wetbulb:

 Dew Point:

 Barometer:

16% 

69.0°F 

41.2°F 

29.995 inHg 

 Baro Trend:  Steady 
Northern Calif
Preparedness
Fire 
Level 

    UV Index  

(Current UV)
6.7  High
(Todays High) @ 12:12pm
6.7   High

National Weather Service Forecast

This
Afternoon
This Afternoon: Sunny
Sunny
Tonight

Tonight: Mostly Clear
Mostly Clear
Monday

Monday: Sunny
Sunny
Monday
Night
Monday Night: Mostly Clear
Mostly Clear
Tuesday

Tuesday: Sunny
Sunny
Tuesday
Night
Tuesday Night: Clear
Clear
Hi 92 °F Lo 69 °F Hi 92 °F Lo 71 °F Hi 94 °F Lo 70 °F

Foresthill Probe 2 Stats  
Foresthill Probe 2: is located on Thomas Street
at 3000 feet. The main Foresthill Weather site
is located on Melody ln at the 2860 foot elevation

Light Air
93.6°F
34.2°C
Temp Rate:
+0.1°F
3.0 mph
Gusting to
5.0 mph
(Humidity)
16%
Wind from SW
221°  SW
Updated: 01/08/21 - 15:38:03
 Todays High: 96.6°F 14:05
 Todays Low: 70.4°F 06:02
 Rain Today: 0.00 in
 Season Total: 0.00 in

Foresthill Wx: Monthly,Yearly, Highs and Lows 

Foresthill  
This Weather Data is coming from the main Foresthill
Weather site located on Melody ln at the 2860 foot
elevation
Not Foresthill Probe 2
Weather Data
Month
  High
Month
  Low
Year
High
Year
Low
Temp 94.3°F
8/1/21
72.7°F
8/1/21
103.9°F
6/18/21
25.3°F
1/26/21
Humidity 31%
8/1/21
15%
8/1/21
100%
1/3/21
5%
7/12/21
Heat Index 90.1°F
8/1/21
71.8°F
8/1/21
101.4°F
6/27/21
31.2°F
1/26/21
Wind Chill 94.3°F
8/1/21
72.7°F
8/1/21
103.9°F
6/18/21
12.5°F
1/26/21
Wind Gust 18 mph
8/1/21
0 mph
8/1/21
50 mph
1/19/21
0 mph
1/1/21
Barometer 30.01 in
8/1/21
29.95 in
8/1/21
30.52 in
2/21/21
29.64 in
6/18/21
ET 0.11 in
8/1/21
0.00 in
8/1/21
0.33 in
7/12/21
0.00 in
1/1/21
Dew Point 44.4°F
8/1/21
36.7°F
8/1/21
60.0°F
6/26/21
3.6°F
2/24/21
Visible Satellite Pacific Satellite US Radar Satellite Imagery Sacramento,CA.  (click to enlarge)
NWS Weather Forecast - Summary
Updated: Sunday, August 1, 2021 - 2:21pm PDT
Local Areas near Critical Fire Weather Conditions this Week due to Low Humidity and Breezy Winds
NWS Weather Forecast: This Afternoon and Tonight (Updated: Sun, 01-Aug-2021 1:59pm PDT)
This
Afternoon
This Afternoon: Sunny
Sunny

Hi 92 °F
NWS forecast: Sunny, with a high near 92. Southwest wind around 8 mph.
Tonight

Tonight: Mostly Clear
Mostly Clear

Lo 69 °F
NWS forecast: Mostly clear, with a low around 69. South southeast wind 2 to 7 mph.
YR.NO 10 Day Weather forecast
Last update: 08/01/2021 @ 13:17
Next update: 08/01/2021 @ 19:17
Provided by: 22
      Temperature Precipitation Pressure Wind  
Today
08/01/2021
13:00 18:00 91°F   30.01 inHg Gentle breeze from west-southwest 8 mph
  18:00 00:00 88°F   29.99 inHg Light breeze from west-southwest 6 mph
    (Click to enlarge)
meteogram

    Forecast for next 9 days

      Temperature Precip Pressure Wind  
Monday
08/02/2021
00:00 06:00 66°F   30.04 inHg Light air from east-northeast 2 mph
  06:00 12:00 61°F   30.06 inHg Light breeze from east 4 mph
  12:00 18:00 88°F   30.07 inHg Light breeze from west-southwest 7 mph
  18:00 00:00 88°F   29.99 inHg Light breeze from west-southwest 5 mph
      Temperature Precip Pressure Wind  
Tuesday
08/03/2021
00:00 06:00 66°F   30.01 inHg Light breeze from east-northeast 4 mph
  06:00 12:00 61°F   29.99 inHg Light air from east 3 mph
  12:00 18:00 93°F   29.97 inHg Light breeze from west-southwest 7 mph
  18:00 00:00 91°F   29.88 inHg Light breeze from west-southwest 5 mph
  23:00 05:00 75°F   29.90 inHg Light air from east 3 mph
      Temperature Precip Pressure Wind  
Wednesday
08/04/2021
05:00 11:00 57°F   29.88 inHg Light air from east 3 mph
  11:00 17:00 91°F   29.89 inHg Light breeze from west-southwest 6 mph
  17:00 23:00 88°F   29.86 inHg Light breeze from southwest 7 mph
  23:00 05:00 68°F   29.90 inHg Light breeze from east-southeast 4 mph
      Temperature Precip Pressure Wind  
Thursday
08/05/2021
05:00 11:00 54°F   29.90 inHg Light breeze from east-northeast 4 mph
  11:00 17:00 84°F   29.92 inHg Light breeze from west-southwest 6 mph
  17:00 23:00 88°F   29.87 inHg Light breeze from west 6 mph
  23:00 05:00 66°F   29.90 inHg Light air from east 3 mph
      Temperature Precip Pressure Wind  
Friday
08/06/2021
05:00 11:00 57°F   29.88 inHg Light breeze from east-northeast 6 mph
  11:00 17:00 90°F   29.87 inHg Light breeze from west-southwest 5 mph
  17:00 23:00 91°F   29.82 inHg Light breeze from west-southwest 6 mph
  23:00 05:00 73°F   29.85 inHg Light breeze from east 4 mph
      Temperature Precip Pressure Wind  
Saturday
08/07/2021
05:00 11:00 61°F   29.82 inHg Light breeze from east 6 mph
  11:00 17:00 90°F   29.82 inHg Light breeze from southwest 7 mph
  17:00 23:00 90°F   29.78 inHg Gentle breeze from southwest 8 mph
  23:00 05:00 68°F   29.80 inHg Light air from east 3 mph
      Temperature Precip Pressure Wind  
Sunday
08/08/2021
05:00 11:00 64°F   29.78 inHg Light breeze from east 6 mph
  11:00 17:00 86°F   29.83 inHg Light breeze from southwest 6 mph
  17:00 23:00 86°F   29.78 inHg Gentle breeze from southwest 8 mph
  23:00 05:00 68°F   29.83 inHg Light air from east-southeast 3 mph
      Temperature Precip Pressure Wind  
Monday
08/09/2021
05:00 11:00 61°F   29.83 inHg Light breeze from east 4 mph
  11:00 17:00 81°F   29.87 inHg Light breeze from southwest 7 mph
  17:00 23:00 82°F   29.81 inHg Gentle breeze from southwest 8 mph
  23:00 05:00 64°F   29.86 inHg Light air from south-southeast 1 mph
      Temperature Precip Pressure Wind  
Tuesday
08/10/2021
05:00 11:00 57°F   29.85 inHg Light air from east 2 mph
  11:00 17:00 77°F   29.86 inHg Light breeze from west-southwest 7 mph
  17:00 23:00 81°F   29.82 inHg Light breeze from west-southwest 6 mph
How Close Are We To this Month's Temperature Record ?
Updated Sunday, Aug 1, 2021- 3:35:01 PM

Current Temperature: 94.3°F

August's High: Temperature Record 99.8°F - Set on Sat, Aug 15, 2020 - 2:09:00 PM
We are currently 5.5°F Less than this Month's record High

August's Low: Temperature Record 50.6°F - Set on Thu, Aug 30, 2018 - 7:12:00 AM
We are currently 43.7°F More than this Month's record Low

Weather History For Sunday, August 1, 2021


On this Day - In Weather History ...
Data courtesy of weatherforyou.com
powered by Cumulus v1.9.3 (1059)
Ambient Weather VWS v14.00
Top Website Map Copyright © 2007 - 2021 Foresthillweather.com Never base important decisions on this or any weather information obtained from the Internet